User: anonymous   Login
Location: Sungai Bunut
(2.6333°N, 113.7333°E)
Time: 02:54:52
(UTC+00:00)
Language:

CZ-4B R/B - Orbit

View from above orbital plane
View from above orbital plane
View from above satellite
View from above satellite

Ground track
Ground track

The orbit data is extracted from the following two-line orbital elements,

1 37181U 10051C   22021.73700228  .00000651  00000-0  52639-4 0  9994
2 37181  97.8136  14.9170 0107660 159.0064  13.5513 14.99064040616540
Epoch (UTC): 21 January 2022 17:41:16
Eccentricity: 0.0107660
inclination: 97.8136°
perigee height: 495 km
apogee height: 644 km
right ascension of ascending node: 14.9170°
argument of perigee: 159.0064°
revolutions per day: 14.99064040
mean anomaly at epoch: 13.5513°
orbit number at epoch: 61654

The dashed part of the orbit path shows where the satellite is in the earth's shadow,  

DLR